Location: Newark
(33.6439°N, 114.9881°W)
Time: 20:29:12
(UTC+00:00)

Tiros 1 - Pass Details

Date: 22 July 2019
Orbit: 631 x 664 km, 48.4° (Epoch: 25 August)

Event Time Altitude Azimuth Distance (km) Brightness Sun altitude
Rises 00:10:21 0° 314° (NW) 2,995 11.3 30.7°
Reaches altitude 10° 00:13:13 10° 331° (NNW) 2,079 10.3 30.1°
Maximum altitude 00:16:52 21° 20° (NNE) 1,465 9.0 29.3°
Drops below altitude 10° 00:20:31 10° 70° (ENE) 2,065 9.3 28.6°
Sets 00:23:21 0° 87° (E) 2,969 10.0 28.0°
